Weather History for Ionia, MI

Change the Weather History Date:

Friday, September 20, 2013

  Actual Average (KGRR) Record (KGRR)
Temperature  
Mean Temperature 68 °F 61 °F  
Max Temperature 72 °F 71 °F 90 °F (1931)
Min Temperature 65 °F 51 °F 33 °F (1956)
Degree Days  
Heating Degree Days 0 5  
Month to date heating degree days 59  
Since 1 July heating degree days 79  
Cooling Degree Days 4 2  
Month to date cooling degree days 57  
Year to date cooling degree days 682  
Growing Degree Days 18 (Base 50)    
Moisture  
Dew Point 66 °F    
Average Humidity 87    
Maximum Humidity 96    
Minimum Humidity 77    
Precipitation  
Precipitation 0.05 in 0.16 in 1.75 in (1957)
Month to date precipitation 2.85  
Year to date precipitation 27.57  
Snow  
Snow 0.00 in 0.00 in 0.00 in ()
Month to date snowfall 0.0  
Since 1 July snowfall 0.0  
Since 1 September snowfall 0.0  
Snow Depth -    
Sea Level Pressure  
Sea Level Pressure 29.79 in    
Wind  
Wind Speed 9 mph (SW)    
Max Wind Speed 16 mph    
Max Gust Speed 22 mph    
Visibility 8 miles    
Events Rain    
T = Trace of Precipitation, MM = Missing Value Source: NWS Daily Summary

Daily Weather History Graph

Daily Weather History Graph

Search for Another Location

Airport:

Trip Planner

Search our weather history database for the weather conditions in past years. The results will help you decide how hot, cold, wet, or windy it might be!

Date:

Astronomy

Sep. 20, 2013 Rise Set
Actual Time 7:25 AM EDT 7:40 PM EDT
Civil Twilight 6:57 AM EDT 8:08 PM EDT
Nautical Twilight 6:23 AM EDT 8:42 PM EDT
Astronomical Twilight 5:49 AM EDT 9:16 PM EDT
Moon 8:10 PM EDT (9/20) 8:42 AM EDT (9/20)
Length of Visible Light 13h 11m
Length of Day
12h 15m
Full, 98% of the Moon is Illuminated
Sep 20
Full
Sep 26
Last Quarter
Oct 4
New
Oct 11
First Quarter
Oct 18
Full

Hourly Weather History & Observations

Time (EDT) Temp. Dew Point Humidity Pressure Visibility Wind Dir Wind Speed Gust Speed Precip Events Conditions
12:14 AM 70.7 °F 66.6 °F 87% 29.86 in 10.0 mi West 10.4 mph - N/A   Scattered Clouds
12:34 AM 70.7 °F 66.7 °F 87% 29.88 in 10.0 mi NW 9.2 mph - N/A   Mostly Cloudy
12:54 AM 70.7 °F 66.6 °F 87% 29.87 in 10.0 mi NW 3.5 mph - N/A   Overcast
1:14 AM 70.2 °F 66.7 °F 89% 29.85 in 10.0 mi SSW 5.8 mph - N/A   Overcast
1:34 AM 70.9 °F 67.3 °F 88% 29.84 in 10.0 mi South 5.8 mph - 0.02 in Rain Light Rain
1:54 AM 70.0 °F 67.8 °F 93% 29.84 in 7.0 mi SSE 5.8 mph - 0.05 in   Mostly Cloudy
2:14 AM 69.8 °F 68.0 °F 94% 29.84 in 7.0 mi South 5.8 mph - N/A   Clear
2:34 AM 69.8 °F 68.0 °F 94% 29.84 in 7.0 mi South 4.6 mph - N/A   Scattered Clouds
2:54 AM 70.2 °F 68.2 °F 93% 29.83 in 7.0 mi South 4.6 mph - N/A   Scattered Clouds
3:14 AM 70.9 °F 68.9 °F 93% 29.82 in 7.0 mi SSW 6.9 mph - N/A   Mostly Cloudy
3:34 AM 71.6 °F 69.1 °F 92% 29.81 in 7.0 mi SSW 9.2 mph - N/A   Mostly Cloudy
3:54 AM 71.8 °F 69.3 °F 92% 29.80 in 7.0 mi SSW 10.4 mph - N/A   Mostly Cloudy
4:14 AM 71.8 °F 69.3 °F 92% 29.80 in 7.0 mi SSW 9.2 mph 16.1 mph N/A   Scattered Clouds
4:34 AM 71.8 °F 69.6 °F 93% 29.80 in 7.0 mi SSW 10.4 mph - N/A   Scattered Clouds
4:54 AM 71.6 °F 69.4 °F 93% 29.79 in 7.0 mi SSW 11.5 mph - N/A   Scattered Clouds
5:14 AM 71.2 °F 69.4 °F 94% 29.79 in 5.0 mi SSW 8.1 mph - N/A   Clear
5:34 AM 70.9 °F 69.3 °F 95% 29.79 in 5.0 mi SSW 8.1 mph - N/A   Clear
5:54 AM 70.7 °F 69.1 °F 95% 29.79 in 5.0 mi South 6.9 mph - N/A   Scattered Clouds
6:14 AM 70.7 °F 69.3 °F 95% 29.78 in 4.0 mi SSW 5.8 mph - N/A   Mostly Cloudy
6:34 AM 70.7 °F 69.4 °F 96% 29.78 in 4.0 mi South 8.1 mph - N/A   Scattered Clouds
6:54 AM 71.1 °F 69.8 °F 96% 29.78 in 5.0 mi SSW 9.2 mph - N/A   Scattered Clouds
7:14 AM 71.1 °F 69.8 °F 96% 29.78 in 5.0 mi SSW 6.9 mph - N/A   Scattered Clouds
7:34 AM 71.1 °F 69.8 °F 96% 29.79 in 4.0 mi North - - N/A   Mostly Cloudy
7:52 AM 71.2 °F 69.8 °F 95% 29.80 in 3.0 mi WSW 10.4 mph - N/A   Overcast
8:14 AM 72.0 °F 70.2 °F 94% 29.81 in 4.0 mi WSW 11.5 mph 16.1 mph N/A Rain Light Rain
8:34 AM 72.0 °F 69.8 °F 93% 29.81 in 5.0 mi North - - N/A   Overcast
8:54 AM 71.8 °F 69.8 °F 93% 29.80 in 5.0 mi SW 6.9 mph - N/A   Overcast
9:14 AM 72.1 °F 69.4 °F 91% 29.80 in 7.0 mi SW 8.1 mph - N/A   Scattered Clouds
9:34 AM 72.3 °F 69.3 °F 90% 29.81 in 7.0 mi SW 9.2 mph - N/A   Scattered Clouds
9:54 AM 72.9 °F 67.6 °F 84% 29.81 in 10.0 mi SW 13.8 mph - N/A   Mostly Cloudy
10:14 AM 72.3 °F 66.4 °F 82% 29.81 in 10.0 mi WSW 10.4 mph 16.1 mph N/A   Overcast
10:34 AM 72.5 °F 65.5 °F 79% 29.81 in 10.0 mi SW 13.8 mph 20.7 mph N/A   Overcast
10:54 AM 72.1 °F 65.5 °F 79% 29.81 in 10.0 mi WSW 16.1 mph 20.7 mph N/A   Overcast
11:14 AM 72.5 °F 65.5 °F 79% 29.81 in 10.0 mi WSW 10.4 mph 15.0 mph N/A   Mostly Cloudy
11:34 AM 72.1 °F 65.3 °F 79% 29.81 in 7.0 mi WSW 12.7 mph - N/A   Overcast
11:54 AM 72.1 °F 65.1 °F 78% 29.80 in 10.0 mi WSW 13.8 mph 17.3 mph N/A   Overcast
12:14 PM 72.5 °F 64.9 °F 77% 29.80 in 10.0 mi WSW 12.7 mph - N/A   Mostly Cloudy
12:34 PM 72.1 °F 64.6 °F 77% 29.79 in 10.0 mi WSW 12.7 mph 21.9 mph N/A   Overcast
12:54 PM 72.5 °F 65.1 °F 78% 29.79 in 10.0 mi SW 13.8 mph 19.6 mph N/A   Overcast
1:14 PM 71.8 °F 64.6 °F 78% 29.79 in 10.0 mi SW 12.7 mph 17.3 mph N/A   Overcast
1:34 PM 71.6 °F 64.6 °F 78% 29.79 in 10.0 mi WSW 12.7 mph 16.1 mph N/A   Overcast
1:54 PM 71.6 °F 64.9 °F 79% 29.78 in 10.0 mi SW 13.8 mph - N/A   Overcast
2:14 PM 72.0 °F 64.8 °F 78% 29.78 in 10.0 mi WSW 12.7 mph 18.4 mph N/A   Overcast
2:34 PM 71.4 °F 64.4 °F 78% 29.78 in 10.0 mi WSW 13.8 mph - N/A   Overcast
2:54 PM 72.0 °F 64.6 °F 77% 29.77 in 10.0 mi WSW 15.0 mph - N/A   Overcast
3:14 PM 71.6 °F 64.4 °F 78% 29.77 in 10.0 mi WSW 12.7 mph 19.6 mph N/A   Overcast
3:34 PM 71.6 °F 64.6 °F 78% 29.77 in 10.0 mi West 13.8 mph 18.4 mph N/A   Overcast
3:54 PM 71.6 °F 64.8 °F 79% 29.77 in 10.0 mi WSW 12.7 mph - N/A   Overcast
4:14 PM 71.6 °F 64.9 °F 79% 29.76 in 10.0 mi West 13.8 mph 17.3 mph N/A   Overcast
4:34 PM 71.1 °F 64.8 °F 80% 29.76 in 10.0 mi WSW 9.2 mph - N/A   Overcast
4:54 PM 71.1 °F 65.1 °F 81% 29.76 in 7.0 mi WSW 10.4 mph - N/A   Overcast
5:14 PM 70.9 °F 64.9 °F 81% 29.75 in 10.0 mi WSW 10.4 mph - N/A   Overcast
5:34 PM 70.9 °F 64.8 °F 81% 29.75 in 10.0 mi WSW 10.4 mph - N/A   Overcast
5:54 PM 70.9 °F 64.6 °F 80% 29.75 in 10.0 mi WSW 10.4 mph - N/A   Overcast
6:14 PM 70.7 °F 64.6 °F 81% 29.75 in 10.0 mi West 9.2 mph - N/A   Overcast
6:34 PM 70.2 °F 64.6 °F 82% 29.75 in 10.0 mi West 9.2 mph - N/A   Overcast
6:54 PM 69.8 °F 64.6 °F 83% 29.74 in 10.0 mi West 6.9 mph - N/A   Mostly Cloudy
7:14 PM 69.3 °F 64.6 °F 85% 29.74 in 10.0 mi West 6.9 mph - N/A   Scattered Clouds
7:34 PM 68.9 °F 64.9 °F 87% 29.74 in 10.0 mi WSW 5.8 mph - N/A   Scattered Clouds
7:54 PM 68.2 °F 64.9 °F 89% 29.74 in 10.0 mi WSW 5.8 mph - N/A   Scattered Clouds
8:14 PM 68.0 °F 64.8 °F 89% 29.74 in 10.0 mi WSW 4.6 mph - N/A   Scattered Clouds
8:34 PM 67.5 °F 64.8 °F 91% 29.74 in 10.0 mi WSW 4.6 mph - N/A   Clear
8:54 PM 67.5 °F 64.9 °F 92% 29.74 in 10.0 mi SW 4.6 mph - N/A   Clear
9:14 PM 67.3 °F 64.8 °F 92% 29.74 in 10.0 mi SW 4.6 mph - N/A   Clear
9:34 PM 67.1 °F 64.8 °F 92% 29.75 in 10.0 mi SW 6.9 mph - N/A   Scattered Clouds
9:54 PM 67.1 °F 64.6 °F 92% 29.75 in 10.0 mi WSW 8.1 mph - N/A   Scattered Clouds
10:14 PM 66.7 °F 64.0 °F 91% 29.74 in 10.0 mi West 8.1 mph - N/A   Clear
10:34 PM 66.7 °F 63.5 °F 89% 29.74 in 10.0 mi West 11.5 mph - N/A   Mostly Cloudy
10:54 PM 66.6 °F 62.8 °F 88% 29.75 in 10.0 mi West 11.5 mph 16.1 mph N/A   Overcast
11:14 PM 66.4 °F 61.9 °F 85% 29.75 in 10.0 mi West 15.0 mph - N/A   Overcast
11:34 PM 65.7 °F 60.1 °F 82% 29.76 in 10.0 mi West 11.5 mph - N/A   Overcast
11:54 PM 65.3 °F 59.7 °F 82% 29.76 in 10.0 mi West 10.4 mph - N/A   Overcast